TimeEST,TemperatureF,Dew PointF,Humidity,Sea Level PressureIn,VisibilityMPH,Wind Direction,Wind SpeedMPH,Gust SpeedMPH,PrecipitationIn,Events,Conditions,WindDirDegrees,DateUTC
12:15 AM,33.8,23.0,65,30.05,10.0,East,11.5,16.1,N/A,,Overcast,80,2013-02-26 05:15:00
12:35 AM,33.8,22.8,64,30.04,10.0,ENE,12.7,18.4,N/A,,Overcast,70,2013-02-26 05:35:00
12:55 AM,33.4,22.5,64,30.02,10.0,ENE,15.0,20.7,N/A,,Overcast,70,2013-02-26 05:55:00
1:15 AM,33.3,22.3,64,30.02,10.0,ENE,12.7,19.6,N/A,,Scattered Clouds,70,2013-02-26 06:15:00
1:35 AM,33.3,22.3,64,30.01,10.0,ENE,11.5,21.9,N/A,,Mostly Cloudy,70,2013-02-26 06:35:00
1:55 AM,33.3,22.1,64,30.00,10.0,East,15.0,23.0,N/A,,Mostly Cloudy,90,2013-02-26 06:55:00
2:15 AM,33.3,21.6,62,30.00,10.0,East,13.8,23.0,N/A,,Overcast,80,2013-02-26 07:15:00
2:35 AM,33.3,21.7,63,29.98,10.0,ENE,13.8,23.0,N/A,,Overcast,70,2013-02-26 07:35:00
2:55 AM,33.4,21.2,61,29.98,10.0,East,16.1,24.2,N/A,,Overcast,80,2013-02-26 07:55:00
3:15 AM,33.3,21.4,62,29.96,10.0,ENE,17.3,24.2,N/A,,Overcast,70,2013-02-26 08:15:00
3:35 AM,33.3,21.6,62,29.97,10.0,ENE,15.0,21.9,N/A,,Overcast,70,2013-02-26 08:35:00
3:55 AM,33.3,22.1,64,29.96,10.0,East,13.8,19.6,N/A,,Overcast,80,2013-02-26 08:55:00
4:15 AM,33.1,22.6,66,29.94,10.0,East,17.3,25.3,N/A,,Overcast,80,2013-02-26 09:15:00
4:35 AM,32.9,23.4,68,29.95,10.0,East,16.1,25.3,N/A,,Overcast,90,2013-02-26 09:35:00
4:55 AM,32.7,24.4,72,29.98,10.0,ESE,15.0,20.7,N/A,,Overcast,110,2013-02-26 09:55:00
5:15 AM,32.2,26.1,78,29.96,10.0,East,18.4,23.0,N/A,,Overcast,90,2013-02-26 10:15:00
5:35 AM,32.0,27.5,83,29.96,10.0,East,12.7,20.7,N/A,,Overcast,90,2013-02-26 10:35:00
5:55 AM,31.8,28.8,88,29.94,4.0,East,18.4,-,N/A,,Overcast,100,2013-02-26 10:55:00
6:15 AM,31.6,31.1,98,29.93,4.0,East,18.4,25.3,N/A,,Overcast,100,2013-02-26 11:15:00
6:35 AM,32.0,32.0,100,29.93,5.0,East,18.4,23.0,N/A,,Overcast,100,2013-02-26 11:35:00
6:55 AM,32.0,32.0,100,29.91,3.0,East,15.0,23.0,N/A,,Overcast,90,2013-02-26 11:55:00
7:15 AM,32.2,32.0,99,29.91,5.0,East,13.8,21.9,N/A,,Overcast,90,2013-02-26 12:15:00
7:35 AM,32.0,32.0,100,29.90,5.0,East,13.8,-,0.01,,Overcast,90,2013-02-26 12:35:00
7:55 AM,32.2,32.2,100,29.90,3.0,East,11.5,17.3,0.02,,Overcast,90,2013-02-26 12:55:00
8:15 AM,32.4,32.4,100,29.89,2.5,East,10.4,17.3,0.02,Rain,Light Rain,90,2013-02-26 13:15:00
8:35 AM,32.5,32.5,100,29.88,3.0,East,10.4,-,0.03,Rain,Light Rain,90,2013-02-26 13:35:00
8:55 AM,32.9,32.9,100,29.88,4.0,East,9.2,-,0.04,,Overcast,90,2013-02-26 13:55:00
9:15 AM,32.9,32.9,100,29.86,3.0,East,8.1,-,N/A,,Overcast,90,2013-02-26 14:15:00
9:35 AM,32.5,32.5,100,29.85,5.0,East,8.1,-,N/A,,Overcast,90,2013-02-26 14:35:00
9:55 AM,32.9,32.9,100,29.82,2.5,East,6.9,-,N/A,,Overcast,90,2013-02-26 14:55:00
10:15 AM,33.3,33.3,100,29.81,2.5,East,6.9,-,0.01,Rain,Light Rain,90,2013-02-26 15:15:00
10:35 AM,33.8,33.8,100,29.79,3.0,East,5.8,-,0.01,Rain,Light Rain,90,2013-02-26 15:35:00
10:55 AM,34.0,34.0,100,29.79,3.0,Calm,Calm,-,0.02,Rain,Light Rain,0,2013-02-26 15:55:00
11:15 AM,34.7,34.7,100,29.77,1.5,Calm,Calm,-,0.06,Rain,Rain,0,2013-02-26 16:15:00
11:35 AM,34.9,34.9,100,29.76,1.5,Calm,Calm,-,0.08,Rain,Rain,0,2013-02-26 16:35:00
11:55 AM,35.2,35.2,100,29.76,1.8,Calm,Calm,-,0.09,Rain,Rain,0,2013-02-26 16:55:00
12:15 PM,35.6,35.6,100,29.73,2.0,Calm,Calm,-,0.01,Rain,Light Rain,0,2013-02-26 17:15:00
12:35 PM,35.8,35.8,100,29.72,2.0,Calm,Calm,-,0.01,Snow,Light Snow,0,2013-02-26 17:35:00
12:55 PM,37.4,37.4,100,29.70,1.8,Calm,Calm,-,0.01,Snow,Light Snow,0,2013-02-26 17:55:00
1:15 PM,37.4,37.4,100,29.68,1.2,Calm,Calm,-,0.01,Snow,Light Snow,0,2013-02-26 18:15:00
1:35 PM,37.4,37.4,100,29.66,1.5,East,18.4,-,0.01,Snow,Light Snow,100,2013-02-26 18:35:00
1:55 PM,37.6,37.6,100,29.65,1.5,East,19.6,23.0,0.01,Snow,Light Snow,100,2013-02-26 18:55:00
2:15 PM,37.6,37.6,100,29.65,1.2,ESE,9.2,18.4,0.03,Rain,Light Rain,120,2013-02-26 19:15:00
2:35 PM,37.8,37.8,100,29.62,2.0,East,13.8,18.4,0.03,Rain,Light Rain,100,2013-02-26 19:35:00
2:55 PM,37.8,37.8,100,29.62,4.0,ESE,13.8,-,0.04,Rain,Light Rain,110,2013-02-26 19:55:00
3:15 PM,37.8,37.8,100,29.60,2.0,ESE,13.8,21.9,0.04,Rain,Rain,110,2013-02-26 20:15:00
3:35 PM,37.6,37.6,100,29.60,7.0,East,10.4,17.3,0.04,,Overcast,100,2013-02-26 20:35:00
3:55 PM,37.6,37.6,100,29.59,5.0,East,11.5,-,0.04,,Overcast,90,2013-02-26 20:55:00
4:15 PM,37.8,37.8,100,29.58,5.0,ENE,9.2,-,N/A,,Overcast,60,2013-02-26 21:15:00
4:35 PM,37.9,37.9,100,29.60,2.5,East,4.6,-,N/A,,Light Drizzle,80,2013-02-26 21:35:00
4:55 PM,38.1,38.1,100,29.59,3.0,NE,9.2,-,N/A,,Drizzle,50,2013-02-26 21:55:00
5:15 PM,38.3,38.3,100,29.58,3.0,ENE,8.1,-,N/A,,Light Drizzle,70,2013-02-26 22:15:00
5:35 PM,38.3,38.3,100,29.59,3.0,ENE,5.8,-,N/A,,Light Drizzle,70,2013-02-26 22:35:00
5:55 PM,38.3,38.3,100,29.59,1.8,East,4.6,-,N/A,,Heavy Drizzle,90,2013-02-26 22:55:00
6:15 PM,38.3,38.3,100,29.58,2.0,East,6.9,-,N/A,,Light Drizzle,80,2013-02-26 23:15:00
6:35 PM,38.3,38.3,100,29.58,4.0,East,6.9,-,N/A,,Overcast,100,2013-02-26 23:35:00
6:55 PM,38.3,38.3,100,29.58,5.0,East,8.1,-,N/A,,Overcast,90,2013-02-26 23:55:00
7:15 PM,38.3,38.3,100,29.59,7.0,ENE,5.8,-,N/A,,Overcast,70,2013-02-27 00:15:00
7:35 PM,38.3,38.3,100,29.60,10.0,ENE,8.1,-,N/A,,Overcast,70,2013-02-27 00:35:00
7:55 PM,38.3,38.3,100,29.60,7.0,East,5.8,-,N/A,,Overcast,80,2013-02-27 00:55:00
8:15 PM,38.3,38.3,100,29.60,5.0,East,6.9,-,N/A,,Overcast,100,2013-02-27 01:15:00
8:35 PM,38.3,38.3,100,29.60,3.0,East,4.6,-,N/A,,Overcast,80,2013-02-27 01:35:00
8:55 PM,38.3,38.3,100,29.61,4.0,Calm,Calm,-,N/A,,Overcast,0,2013-02-27 01:55:00
9:15 PM,38.3,38.3,100,29.61,4.0,Calm,Calm,-,N/A,,Light Drizzle,0,2013-02-27 02:15:00
9:35 PM,38.3,38.3,100,29.63,2.0,Calm,Calm,-,N/A,,Light Drizzle,0,2013-02-27 02:35:00
9:55 PM,38.3,38.3,100,29.65,0.5,Calm,Calm,-,N/A,Fog,Fog,0,2013-02-27 02:55:00
10:15 PM,38.3,38.3,100,29.64,0.5,Calm,Calm,-,N/A,Fog,Fog,0,2013-02-27 03:15:00
10:35 PM,38.3,38.3,100,29.63,0.8,Calm,Calm,-,N/A,Rain,Light Rain,0,2013-02-27 03:35:00
10:55 PM,38.3,38.3,100,29.62,0.8,Calm,Calm,-,N/A,,Overcast,0,2013-02-27 03:55:00
11:15 PM,39.4,39.4,100,29.63,7.0,West,5.8,-,N/A,,Overcast,260,2013-02-27 04:15:00
11:55 PM,40.3,40.3,100,29.62,10.0,West,6.9,-,N/A,,Overcast,260,2013-02-27 04:55:00